Location: Feydey
(46.3431°N, 7.0106°E)
Time: 21:46:38
(UTC+00:00)

ATLAS CENTAUR R/B - Pass Details

Date: 20 June 2021
Orbit: 472 x 671 km, 64.6° (Epoch: 13 June)

Event Time Altitude Azimuth Distance (km) Brightness Sun altitude
Rises 21:46:16 0° 313° (NW) 2,818 6.3 -16.1°
Reaches altitude 10° 21:48:44 10° 300° (WNW) 1,949 4.9 -16.3°
Maximum altitude 21:52:24 26° 244° (WSW) 1,232 3.1 -16.5°
Enters shadow 21:54:30 19° 205° (SSW) 1,527 3.2 -16.7°
